Powrót do katalogu

COSMOS 1261 DEB

AktywnyHEO
NORAD 27796·DEBRIS·🇷🇺 Russia

Wystrzelony Mar 31, 1981 z Plesetsk Cosmodrome

Loading…

Następne Przeloty (najbliższe 24 godziny)

TLE

Starzejące sięSource: Space-Track

Epoka: Sep 5, 2026, 05:28 UTC

1 27796U 81031H   26248.22821627 -.00001199  00000-0  00000-0 0  9997
2 27796  65.1839 345.8910 6974995  15.7681 357.8781  2.01768447187488

Śledź COSMOS 1261 DEB w czasie rzeczywistym z AllMySat

Download on the App Store